User: anonymous   Login
Location: Unspecified
(0.0000°N, 0.0000°E)
Time: 01:56:20
(UTC+00:00)
Language:

LES 8 - Orbit

View from above orbital plane
View from above orbital plane
View from above satellite
View from above satellite

Ground track
Ground track

The orbit data is extracted from the following two-line orbital elements,

1  8746U 76023A   18020.51632080 -.00000107 +00000-0 +00000-0 0  9998
2  8746 016.2799 079.1136 0018000 047.6042 075.9806 01.00274868098907
Epoch (UTC): 20 January 2018 12:23:30
Eccentricity: 0.0018000
inclination: 16.2799°
perigee height: 35709 km
apogee height: 35861 km
right ascension of ascending node: 79.1136°
argument of perigee: 47.6042°
revolutions per day: 1.00274868
mean anomaly at epoch: 75.9806°
orbit number at epoch: 9890

The dashed part of the orbit path shows where the satellite is in the earth's shadow,  

DLR